Preview of NWS' New Version of Forecast
This preview is not operational and should not be used for support decisions.

Regional Weather Roundup (RWR)

Issued by National Weather Service (NWS)

                            
000
ASUS43 KDTX 190510
RWRMI 
MICHIGAN HOURLY REGIONAL WEATHER ROUNDUP
NATIONAL WEATHER SERVICE DETROIT/PONTIAC MI
1200 AM EST TUE FEB 19 2019

NOTE: "FAIR" INDICATES FEW OR NO CLOUDS BELOW 12,000 FEET WITH NO
SIGNIFICANT WEATHER AND/OR OBSTRUCTION TO VISIBILITY.

MIZ047>049-052>055-059>063-066>070-074>076-081>083-190600-
SOUTHEAST LOWER MICHIGAN
  
CITY           SKY/WX    TMP DP  RH WIND       PRES   REMARKS
ADRIAN         FAIR      16  12  84 CALM      30.52F                  
ALMA           FAIR       9   0  67 CALM      30.54R                  
ANN ARBOR      FAIR      -3  -6  87 CALM      30.51S                  
BAD AXE        FAIR       4   1  88 CALM      30.50R                  
CARO           FAIR       4   2  91 CALM      30.51R                  
DETROIT CITY   FAIR      15  10  80 S5        30.53R WCI   8          
DETROIT        FAIR      15   7  70 CALM      30.54R                  
FLINT          FAIR      10   4  76 W5        30.52R WCI   2          
GROSSE ILE     FAIR      18  14  82 SE3       30.53S                  
HILLSDALE      FAIR       9   4  82 CALM      30.48S                  
HOWELL         FAIR      12   6  76 CALM      30.50R                  

CITY           SKY/WX    TMP DP  RH WIND       PRES   REMARKS
JACKSON        FAIR       7   5  91 SW5       30.51R WCI  -2          
LAMBERTVILLE   FAIR      13  11  90 CALM      30.53S                  
LANSING        FAIR      12   8  84 W7        30.53R WCI   1          
LAPEER         FAIR       1  -4  79 CALM      30.51R                  
MASON          FAIR       6   3  88 CALM      30.51R                  
MONROE         FAIR      17  16  97 CALM      30.52S                  
MT. CLEMENS    FAIR       6   5  94 CALM        N/A                   
PONTIAC        FAIR       8   4  83 W3        30.49R                  
PORT HOPE        N/A     16  10  77 W5        30.50R WCI   9          
PORT HURON     FAIR      -2  -6  84 CALM      30.53R                  
TRI CITIES     FAIR      12   4  70 NW8       30.54R WCI   0          
MIDLAND        FAIR       9   4  82 CALM      30.54R                  
TROY           FAIR      14   9  82 CALM      30.54R                  
SAGINAW HB     FAIR      12   5  73 NW7       30.53R WCI   2          
$$
MIZ043>046-050>051-056>058-064>065-071>073-077>080-190600-
SOUTHWEST LOWER MICHIGAN
  
CITY           SKY/WX    TMP DP  RH WIND       PRES   REMARKS
BATTLE CREEK   FAIR      12   5  73 NW6       30.52R WCI   3          
BENTON HARBOR  CLOUDY    25  17  72 E6        30.55R WCI  18          
BIG RAPIDS     FAIR       6   3  86 W3        30.51S                  
COLDWATER      FAIR      12  11  92 CALM      30.52R                  
FREMONT        FAIR       8   5  85 CALM      30.53F                  
HOLLAND        MOCLDY    17   8  67 NE5       30.55R WCI  10          
GRAND RAPIDS   FAIR      16   6  65 NW5       30.54R WCI   9          
IONIA          FAIR      11   3  69 N6        30.53R WCI   2          
KALAMAZOO      FAIR      16   8  71 N5        30.53R WCI   9          
LUDINGTON      CLOUDY    10   7  85 CALM      30.55R                  
MARSHALL       FAIR       3   1  91 CALM      30.51S                  
MOUNT PLEASANT FAIR       4  -2  74 W3        30.53R                  
MUSKEGON       FAIR      16   6  65 NE6       30.55S WCI   7          
SOUTH HAVEN    CLOUDY    22  13  66 CALM      30.54S                  
$$
MIZ016>042-190600-
NORTHERN LOWER MICHIGAN
  
CITY           SKY/WX    TMP DP  RH WIND       PRES   REMARKS
ALPENA         FAIR       0  -5  79 W7        30.52R WCI -13          
BEAVER ISLAND  FAIR       2   0  88 CALM      30.53R                  
BELLAIRE       FAIR       7   4  87 CALM      30.53S                  
CADILLAC       FAIR      -2  -7  78 CALM      30.46R                  
CHARLEVOIX     FAIR       8   3  80 CALM      30.55R                  
FRANKFORT      MOCLDY     8   4  83 CALM      30.54R                  
GAYLORD        MOCLDY     9   2  73 CALM      30.45R                  
GRAYLING       FAIR      -4  -7  88 CALM      30.47R                  
HARBOR SPRINGS FAIR       7   2  80 CALM      30.52R                  
HOUGHTON LAKE  FAIR      -2  -6  83 CALM      30.49R                  
MANISTEE       FAIR       4   1  88 CALM      30.55R                  
OSCODA         FAIR      -3  -9  76 CALM      30.53R                  
PELLSTON       FAIR       0  -2  91 CALM      30.52R                  
ROGERS CITY    CLOUDY     9   3  78 W7        30.52S WCI  -2          
TRAVERSE CITY  MOCLDY     7   3  84 CALM      30.53R                  
$$
MIZ007>008-015-190600-
EASTERN UPPER MICHIGAN
  
CITY           SKY/WX    TMP DP  RH WIND       PRES   REMARKS
KINROSS        FLURRIES   8   4  83 W5        30.49R WCI   0          
MACKINAC ISLAN CLOUDY    13   5  70 W8        30.50R WCI   1          
NEWBERRY       CLOUDY    11   5  76 MISG      30.47F                  
S. S. MARIE    CLOUDY     8   3  80 SW5       30.48R WCI   0          
MUNISING         N/A      2  -3  80 S6        30.52R WCI  -9          
$$
MIZ004>006-011>014-085-190600-
CENTRAL UPPER MICHIGAN
  
CITY           SKY/WX    TMP DP  RH WIND       PRES   REMARKS
MANISTIQUE     FAIR       0  -6  77 W5        30.52R WCI -10          
ESCANABA       FAIR      -7 -11  83 CALM      30.55R                  
MENOMINEE      FAIR      -1  -5  82 CALM      30.55R                  
SAWYER-GWINN   FAIR      -4  -9  80 CALM      30.47R                  
$$
MIZ001>003-009>011-084-190600-
WESTERN UPPER MICHIGAN
  
CITY           SKY/WX    TMP DP  RH WIND       PRES   REMARKS
IRON MOUNTAIN  FAIR      -6 -11  79 CALM      30.48R                  
HOUGHTON       FAIR       1  -6  72 CALM      30.46S                  
COPPER HARBOR    N/A      0  -6  76 SW8       30.51R WCI -14          
IRONWOOD       FAIR     -11 -14  86 CALM      30.47S                  
$$

ABBREVIATIONS USED IN REMARKS
   TC - TEMPERATURE IN CELSIUS
  WCI - WIND CHILL INDEX
   HX - HEAT INDEX
  VSB - VISIBILITY